This is the latest recevied weather packets stored in our database for station/object K5GTX. If no packets are shown the sender has not sent any weather packets the latest 1 day(s).
| Time | Temp. | Humidity | Pressure | Rain* | Wind** | Luminosity | Snow |
|---|---|---|---|---|---|---|---|
| 1836274651 | 25.56° C | 76% | 1022 hPa | 0 mm | 0 m/s | 0 W/m² | - |
| 1836274504 | 25.56° C | 75% | 1022.5 hPa | 0 mm | 0 m/s | 0 W/m² | - |
| 1836274349 | 26.11° C | 75% | 1022.1 hPa | 0 mm | 0 m/s | 0 W/m² | - |
| 1836274202 | 25.56° C | 76% | 1022.2 hPa | 0 mm | 0 m/s | 0 W/m² | - |
| 1836274047 | 26.11° C | 76% | 1022 hPa | 0 mm | 0 m/s | 0 W/m² | - |
| 1778048463 | 15.56° C | 99% | 1016.1 hPa | 0 mm | 1.34 m/s, 25° | 0 W/m² | - |
| 1778048158 | 15.56° C | 99% | 1016.4 hPa | 0 mm | 0.89 m/s, 297° | 0 W/m² | - |
| 1778047856 | 15.56° C | 99% | 1016.2 hPa | 0 mm | 2.68 m/s, 58° | 0 W/m² | - |
| 1778047555 | 15.56° C | 99% | 1016.1 hPa | 0 mm | 1.34 m/s, 36° | 0 W/m² | - |
| 1778047251 | 15.56° C | 99% | 1016.3 hPa | 0 mm | 1.34 m/s, 18° | 0 W/m² | - |
| 1778046948 | 15.56° C | 99% | 1016.2 hPa | 0 mm | 2.68 m/s, 25° | 0 W/m² | - |
| 1778046645 | 15.56° C | 99% | 1016.4 hPa | 0 mm | 2.68 m/s, 35° | 0 W/m² | - |
| 1778046342 | 15.56° C | 99% | 1016.1 hPa | 0 mm | 2.24 m/s, 35° | 0 W/m² | - |
| 1778046037 | 15.56° C | 99% | 1016.5 hPa | 0 mm | 2.68 m/s, 24° | 0 W/m² | - |
| 1778045736 | 15.56° C | 99% | 1016.3 hPa | 0 mm | 0 m/s | 0 W/m² | - |
| 1778045434 | 15.56° C | 99% | 1016.2 hPa | 0 mm | 0 m/s | 0 W/m² | - |
| 1778045132 | 16.11° C | 99% | 1016.2 hPa | 0 mm | 2.68 m/s, 43° | 0 W/m² | - |
| 1778044830 | 16.11° C | 99% | 1016.3 hPa | 0 mm | 1.79 m/s, 2° | 0 W/m² | - |
| 1778044526 | 16.11° C | 99% | 1016.4 hPa | 0 mm | 1.79 m/s, 0° | 0 W/m² | - |
| 1778044223 | 16.67° C | 99% | 1016.3 hPa | 0 mm | 0 m/s | 0 W/m² | - |
| 1778043921 | 16.67° C | 99% | 1016.2 hPa | 0 mm | 2.24 m/s, 49° | 0 W/m² | - |
| 1778043619 | 16.67° C | 99% | 1016.2 hPa | 0 mm | 1.34 m/s, 82° | 0 W/m² | - |
| 1778043314 | 16.67° C | 99% | 1016.2 hPa | 0 mm | 0.89 m/s, 48° | 0 W/m² | - |
| 1778043011 | 16.67° C | 99% | 1016 hPa | 0 mm | 1.34 m/s, 64° | 0 W/m² | - |
| 1778042710 | 16.67° C | 99% | 1016.2 hPa | 0 mm | 1.79 m/s, 312° | 0 W/m² | - |
* Rain latest hour (hover to see other rain measurements)
** Current wind speed in m/s (hover to see current wind gust speed)